Flag for U.S.A. Weather past 2 weeks in Tulsa, Oklahoma, U.S.A.

Now
56 °F

Passing clouds.


Feels Like: 53 °F
Forecast: 42 / 60 °F
Wind: 12 mph from South

Location: Tulsa International Airport


UV Index: 0 (Low)

Visibility: 10 mi


Pressure: 30.02 "Hg

Humidity: 44%

Dew point: 34 °F

Location of TulsaLocation

Historic Weather in Tulsa

°F

Tulsa temperature yesterday

Maximum temperature yesterday: 62 °F (at 4:53 PM)
Minimum temperature yesterday: 31 °F (at 3:53 AM)
Average temperature yesterday: 49 °F

Past Weeks' High & Low Weather Summary

 TemperatureHumidityPressure
High86 °F (Apr 10, 3:53 PM)100% (Apr 7, 6:53 AM)30.26 "Hg (Apr 7, 6:53 AM)
Low31 °F (Apr 15, 3:53 AM)20% (Apr 15, 5:53 PM)29.41 "Hg (Apr 13, 3:53 PM)
Average59 °F60%29.91 "Hg
* Reported Apr 1 10:53 PM — Apr 16 10:53 PM, Tulsa, Weather by CustomWeather, © 2014

Note: Actual official high and low records may vary slightly from our data, if they occured in-between our weather recording intervals... More about our weather records

Advertising

Historic Weather Conditions — Data for Previous 24 hours

 ConditionsComfort  
Time TempWeatherWind HumidityBarometerVisibility
10:53 PM
Apr 16
56 °FPassing clouds.12 mph44%30.02 "Hg10 mi
9:53 PM57 °FPassing clouds.12 mph42%30.01 "Hg10 mi
8:53 PM60 °FPartly sunny.10 mph38%29.98 "Hg10 mi
7:53 PM62 °FPartly sunny.16 mph34%29.95 "Hg10 mi
6:53 PM64 °FScattered clouds.16 mph32%29.93 "Hg10 mi
5:53 PM66 °FPartly sunny.22 mph29%29.91 "Hg10 mi
4:53 PM65 °FPartly sunny.23 mph29%29.90 "Hg10 mi
3:53 PM66 °FScattered clouds.20 mph29%29.91 "Hg10 mi
2:53 PM64 °FScattered clouds.26 mph29%29.93 "Hg10 mi
1:53 PM62 °FPartly sunny.29 mph30%29.96 "Hg10 mi
12:53 PM62 °FPartly sunny.32 mph31%29.98 "Hg10 mi
11:53 AM58 °FPartly sunny.31 mph35%30.01 "Hg10 mi
10:53 AM56 °FPartly sunny.28 mph39%30.03 "Hg10 mi
9:53 AM53 °FPartly sunny.26 mph43%30.02 "Hg10 mi
8:53 AM49 °FPartly sunny.18 mph52%30.03 "Hg10 mi
7:53 AM47 °FOvercast.13 mph59%30.03 "Hg10 mi
6:53 AM46 °FPassing clouds.13 mph56%30.01 "Hg10 mi
5:53 AM47 °FPassing clouds.10 mph52%30.01 "Hg10 mi
4:53 AM48 °FPassing clouds.17 mph50%30.00 "Hg10 mi
3:53 AM48 °FPassing clouds.14 mph50%30.01 "Hg10 mi
2:53 AM48 °FPassing clouds.12 mph50%30.01 "Hg10 mi
1:53 AM49 °FPassing clouds.13 mph46%30.03 "Hg10 mi
12:53 AM51 °FPassing clouds.14 mph39%30.05 "Hg10 mi
11:53 PM
Apr 15
52 °FPassing clouds.14 mph37%30.05 "Hg10 mi
Weather by CustomWeather, © 2014

See weather overview